Location: Squirrel Cove
(50.1074°N, 124.9139°W)
Time: 23:54:21
(UTC-08:00)

BlueWalker 3 - Pass Details

Date: 04 December 2022
Orbit: 499 x 517 km, 53.2° (Epoch: 29 January)

Event Time Altitude Azimuth Distance (km) Brightness Sun altitude
Rises 20:05:48 0° 292° (WNW) 2,625 6.5 -35.4°
Reaches altitude 10° 20:08:04 10° 286° (WNW) 1,732 5.4 -35.7°
Enters shadow 20:08:13 11° 285° (WNW) 1,674 5.3 -35.7°
